Tracking 29777 objects as of 5-Oct-2024
HD Live streaming from Space Station
objects crossing your sky now

HAMMER

Track HAMMER now!
10-day predictions


NORAD ID: 59148
Int'l Code: 2024-043BC
Perigee: 491.8 km
Apogee: 506.1 km
Inclination: 97.5 °
Period: 94.4 minutes
Semi major axis: 6869 km
RCS: Unknown
Launch date: March 4, 2024
Source: Spain (SPN)
Launch site: AIR FORCE WESTERN TEST RANGE (AFWTR)
Your satellite tracking list
Your tracking list is empty




NASA's NSSDC Master Catalog

Two Line Element Set (TLE):
1 59148U 24043BC  24279.17046308  .00029971  00000-0  12108-2 0  9995
2 59148  97.4888  42.8644 0010400 229.6899 130.3430 15.24658617 32555
Source of the keplerian elements: AFSPC